Flag for Germany Weather past 2 weeks in Kamp-Lintfort, North Rhine-Westphalia, Germany

Now
52 °F

Scattered clouds.


Feels Like: 47 °F
Forecast: 37 / 46 °F
Wind: 14 mph from West

Location: Duesseldorf

Current Time: Mar 1, 2015 at 2:05:28 PM

Latest Report: Mar 1, 2015 at 1:00 PM


Visibility: 22 mi

Pressure: 29.63 "Hg

Humidity: 55%

Dew point: 36 °F

Location of Kamp-LintfortLocation

Historic Weather in Kamp-Lintfort — Graph

°F

Kamp-Lintfort temperature yesterday

Maximum temperature yesterday: 47 °F (at 4:00 PM)
Minimum temperature yesterday: 28 °F (at 5:00 AM)
Average temperature yesterday: 39 °F

Past Weeks' High & Low Weather Summary

 TemperatureHumidityPressure
High53 °F (Feb 14, 3:00 PM)100% (Feb 18, 7:00 AM)30.78 "Hg (Feb 18, 7:00 AM)
Low26 °F (Feb 15, 8:00 AM)49% (Feb 28, 4:00 PM)29.35 "Hg (Feb 21, 5:00 AM)
Average39 °F83%29.97 "Hg
* Reported Feb 14 1:00 PM — Mar 1 1:00 PM, Kamp-Lintfort, Weather by CustomWeather, © 2015

Note: Actual official high and low records may vary slightly from our data, if they occured in-between our weather recording intervals... More about our weather records

Advertising

Kamp-Lintfort weather history for previous 24 hours

 ConditionsComfort  
Time TempWeatherWind HumidityBarometerVisibility
1:00 PM
Sun, Mar 1
52 °FScattered clouds.14 mph55%29.63 "Hg22 mi
12:00 PM50 °FPartly sunny.10 mph61%29.62 "Hg22 mi
11:00 AM51 °FScattered clouds.10 mph67%29.61 "Hg12 mi
10:00 AM49 °FPartly sunny.10 mph83%29.60 "Hg25 mi
9:00 AM46 °FPartly sunny.7 mph92%29.59 "Hg12 mi
8:00 AM41 °FRain. Low clouds.7 mph97%29.59 "Hg3 mi
7:00 AM41 °FRain. Low clouds.8 mph96%29.58 "Hg4 mi
6:00 AM40 °FRain. Low clouds.9 mph97%29.60 "Hg2 mi
5:00 AM40 °FLight rain. Overcast.10 mph90%29.60 "Hg11 mi
3:00 AM42 °FLight rain. Overcast.9 mph69%29.67 "Hg25 mi
2:00 AM43 °FLight rain. Overcast.8 mph65%29.70 "Hg25 mi
1:00 AM44 °FOvercast.9 mph54%29.76 "Hg31 mi
12:00 AM44 °FOvercast.12 mph54%29.77 "Hg31 mi
11:00 PM
Sat, Feb 28
43 °FOvercast.10 mph55%29.81 "Hg31 mi
10:00 PMN/APassing clouds.No windN/AN/A2 mi
9:00 PM43 °FOvercast.9 mph56%29.88 "Hg31 mi
8:00 PM44 °FPassing clouds.8 mph57%29.91 "Hg25 mi
7:00 PM43 °FPassing clouds.8 mph57%29.93 "Hg25 mi
6:00 PM44 °FScattered clouds.8 mph56%29.94 "Hg25 mi
5:00 PM46 °FPassing clouds.8 mph50%29.96 "Hg25 mi
4:00 PM47 °FScattered clouds.8 mph49%30.00 "Hg25 mi
3:00 PM47 °FScattered clouds.7 mph51%30.03 "Hg25 mi
2:00 PM46 °FPartly sunny.7 mph54%30.05 "Hg22 mi
Weather by CustomWeather, © 2015

See weather overviewHow to use our weather pages